COSMOS 2251 DEB, 34116

Orbit data source: Space-Track

COSMOS 2251 DEB, 34116 is space debris in LEO originally from a launch on Wed, 16 Jun 1993 UTC launched from the Plesetsk Missile And Space Complex (PKMTR). The debris from Iridium 33, an American commercial communications satellite, has been tracked extensively since its accidental collision with the defunct Russian satellite Cosmos 2251 in 2009. This event, occurring at high speed in low Earth orbit (LEO), generated thousands of pieces of space debris, significantly increasing the risk of further collisions. The Iridium 33 debris cloud has impacted space traffic management and orbital debris mitigation strategies, making it a subject of ongoing study in space situational awareness.

Loading next visibility...
Identifier
34116, 1993-036KM
Orbit
LEO
Country
Flag of CISCIS
Related business
Manufacturer
Unknown
Mission
Spacecraft
Bus & Motor
Unknown
Mass
Unknown
Launch date (UTC)
1993-06-16 (33 years ago)
Launch vehicle
Unknown
Launch site
Plesetsk Missile And Space Complex (PKMTR)
Object type
Payload
Rocket body
Debris
Shape & HBR
Unknown shape, 0.2 m
Radar Cross Section
Small (<0.1 m²)

Expand to show TLE details & history
Last TLE update: 8 hours ago

TLE from 8 hours ago
0 COSMOS 2251 DEB
1 34116U 93036KM  26121.49593601  .00002969  00000-0  71107-3 0  9990
2 34116  74.0397 278.9299 0010956 323.2769  93.6312 14.53946011905176
Epoch: 2026-05-01T11:54Z
TLE epoch observation values (Epoch: 2026-05-01T11:54:08.871Z)
Latitude
53.87911°
Longitude
-96.09259°
Altitude
721.795 km
Speed
7.5 km/s
True Right ascension
20h 07m 29s
True Declination
53° 42' 52"
Sunlit
Object was in daylight at epoch
Visualization orbit readout
Latitude
Unknown
Longitude
Unknown
Altitude
Unknown
Speed
Unknown
Apparent Right ascension
Unknown
Apparent Declination
Unknown
Sunlit
N/A
Visualization observer readout
Local Sidereal Time
03:26:04
Azimuth
Unknown
Elevation
Unknown
Doppler factor
Unknown
Orbital elements
Apogee altitude
718.16 km
Perigee altitude
702.627 km
Semi-major axis
7,088.53 km
Eccentricity
0.0011
Inclination
74.0397°
RAAN
278.9299°
Arg. of periapsis
323.2769°
True anomaly
93.75648°
Mean anomaly
93.6312°
Eccentric anomaly
93.69384°
Mean motion
3.63671 °/min
Orbital period
98.99 mins
BSTAR
0.00071107
Loading maneuver chart data...
Computing Atmospheric mass density...

Documentation

Showing up to 5 results
|